This is the latest recevied weather packets stored in our database for station/object N1ORT. If no packets are shown the sender has not sent any weather packets the latest 10 day(s).
| Time | Temp. | Humidity | Pressure | Rain* | Wind** | Luminosity | Snow |
|---|---|---|---|---|---|---|---|
| 1777998333 | 26.11° C | 48% | 1006.1 hPa | 0 mm | - | 926 W/m² | - |
| 1777998030 | 26.11° C | 48% | 1006.1 hPa | 0 mm | - | 908 W/m² | - |
| 1777997726 | 26.67° C | 47% | 1006.3 hPa | 0 mm | - | 905 W/m² | - |
| 1777997424 | 25.56° C | 45% | 1006.5 hPa | 0 mm | - | 876 W/m² | - |
| 1777997122 | 25.56° C | 46% | 1006.5 hPa | 0 mm | - | 903 W/m² | - |
| 1777996819 | 25° C | 48% | 1006.7 hPa | 0 mm | - | 898 W/m² | - |
| 1777996515 | 25° C | 46% | 1006.8 hPa | 0 mm | - | 897 W/m² | - |
| 1777996211 | 25.56° C | 43% | 1006.9 hPa | 0 mm | - | 891 W/m² | - |
| 1777995908 | 25.56° C | 44% | 1007 hPa | 0 mm | - | 890 W/m² | - |
| 1777995604 | 25° C | 47% | 1007 hPa | 0 mm | - | 924 W/m² | - |
| 1777995302 | 24.44° C | 46% | 1006.9 hPa | 0 mm | - | 913 W/m² | - |
| 1777994998 | 23.33° C | 51% | 1006.9 hPa | 0 mm | - | 892 W/m² | - |
| 1777994695 | 23.33° C | 49% | 1007.1 hPa | 0 mm | - | 915 W/m² | - |
| 1777994390 | 23.33° C | 50% | 1007.2 hPa | 0 mm | - | 870 W/m² | - |
| 1777994086 | 22.78° C | 49% | 1007.1 hPa | 0 mm | - | 851 W/m² | - |
| 1777993784 | 23.33° C | 50% | 1007.2 hPa | 0 mm | - | 846 W/m² | - |
| 1777993480 | 22.78° C | 52% | 1007.2 hPa | 0 mm | - | 843 W/m² | - |
| 1777993179 | 22.22° C | 52% | 1007.3 hPa | 0 mm | - | 844 W/m² | - |
| 1777992878 | 22.78° C | 51% | 1007.4 hPa | 0 mm | - | 827 W/m² | - |
| 1777992576 | 22.78° C | 53% | 1007.4 hPa | 0 mm | - | 826 W/m² | - |
| 1777992274 | 21.67° C | 53% | 1007.5 hPa | 0 mm | - | 809 W/m² | - |
| 1777991971 | 21.67° C | 55% | 1007.6 hPa | 0 mm | - | 796 W/m² | - |
| 1777991668 | 21.67° C | 54% | 1007.5 hPa | 0 mm | - | 794 W/m² | - |
| 1777991365 | 20.56° C | 55% | 1007.5 hPa | 0 mm | - | 799 W/m² | - |
| 1777991062 | 20.56° C | 55% | 1007.4 hPa | 0 mm | - | 795 W/m² | - |
* Rain latest hour (hover to see other rain measurements)
** Current wind speed in m/s (hover to see current wind gust speed)